Showing default

MANDRAKE 2 ABLE, 48907

Orbit data source: Space-Track

MANDRAKE 2 ABLE, 48907 is an American payload satellite in SSO that was launched on Wed, 30 Jun 2021 UTC via an FALCON 9 launch vehicle from the Air Force Eastern Test Range (AFETR). Payloads include a variety of satellites, spacecraft, and rockets equipped with specific instruments for various scientific and technological missions. These include communications satellites like Starlink; space stations such as the ISS; scientific satellites like the Hubble; Earth observation satellites from companies like Planet Labs, Umbra, and HawkEye 360; GPS; miniature CubeSats for education and research; and military/defense satellites.

Loading next visibility...
MANDRAKE 2 ABLE details
Identifier
48907, 2021-059AE
Orbit
SSO
Last TLE update9 hours ago
Origin
Flag of USSDA/DARPA2 (US)
ManufacturerAstro Digital
MissionOperational Defense Communications
Bus & MotorCORVUS-XL, Unknown motor
Mass23 kg wet, 23 kg dry
Launch date (UTC)
2021-06-30 (4 years ago)
Launch vehicle
FALCON 9
Launch site
Air Force Eastern Test Range (AFETR)
Object type
Payload
Rocket body
Debris
Shape & HBRBox + 1 Pan, 0.5 m
Radar Cross Section0.375 m², Medium (>0.1 m² and < 1m²)

Expand to show TLE details & history

TLE from 9 hours ago
0 MANDRAKE 2 ABLE
1 48907U 21059AE  25014.94582729  .00015246  00000-0  47007-3 0  9992
2 48907  97.6688 169.9590 0007890  70.9836 289.2260 15.33667300197167
Epoch: 2025-01-14T22:41Z
Definitive object data (Epoch: 2025-01-14T22:41:59.477Z)
Latitude-0.00004°
Longitude74.81595°
Altitude466.209 km
Speed7.634 km/s
True Right ascension11h 19m 50s
True Declination0° 00' 00"
Sunlit
Object was in full shadow at TLE epoch
Visualization TLE readout
Latitude-23.73903°
Longitude-108.18337°
Altitude477.625 km
Speed7.624 km/s
Apparent Right ascension21h 48m 04s
Apparent Declination-33° 28' 10"
Sunlit
Object is in daylight
Visualization observer readout
Local Sidereal Time08:04:23
Azimuth279.103° WNW
Elevation-68.327°
Doppler factor1
Orbital elements
Apogee altitude467.238 km
Perigee altitude456.444 km
Semi-major axis6,839.978 km
Eccentricity0.000789
Inclination97.6688°
RAAN169.959°
Arg. of periapsis70.9836°
True anomaly289.1406°
Mean anomaly289.226°
Eccentric anomaly289.1833°
Mean motion3.83673 °/min
BSTAR0.00047007
Orbital period93.83 mins
Loading maneuver chart data...
Loading historical data...
Loading historical data...
Loading historical data...
Loading historical data...
Loading historical data...
Loading historical data...
Loading historical data...

MANDRAKE 2 ABLE Visibility forecast

Observer location: undefined°, undefined

Span
Click to sort rows by Start time (UTC) header in descending order
Start Az.
Max El. time (UTC)
Max El. Az.
Max El.
End time (UTC)
End Az.
5 mins2025-01-15 09:47:50.892Z137.795° SSE2025-01-15 09:50:50.892Z56.206° ENE30.486°2025-01-15 09:52:50.892Z10.702° NNE
6 mins2025-01-15 22:44:50.892Z27.073° NE2025-01-15 22:47:50.892Z100.469° ESE35.208°2025-01-15 22:50:50.892Z172.358° S
|